Retour au catalogue

COSMOS 1900 DEB

ActifLEO
NORAD 43499·DEBRIS·🇷🇺 Russia

Lancé Dec 12, 1987 depuis Baikonur Cosmodrome

Loading…

Prochains Passages (prochaines 24 heures)

TLE

FraisSource: Space-Track

Époque: Sep 14, 2026, 03:39 UTC

1 43499U 87101D   26257.15234351  .00000336  00000-0  91221-4 0  9993
2 43499  66.0812  97.9943 0028403  18.0246 342.1862 14.60294112607732

Suivez COSMOS 1900 DEB en temps réel avec AllMySat

Download on the App Store